sat.trackr.live / text

‹ back to catalog

GPS BIII-10 (PRN 13)

NORAD 68791 · 2026-087A

PAYLOAD ACTIVE UNKNOWN

§ Identity

Operator
Country
US
Launch date
2026-04-21
Launch site
AFETR
Launch vehicle
Mass (kg)
RCS (m²)

Purposes: nav

External: N2YO · Heavens-Above · Gunter

§ Orbital elements

Epoch: 2026-05-19T11:39:59.721696Z

Period
717.95 min
Inclination
54.9639°
Eccentricity
0.0005154
Mean motion
2.00570690 rev/d
Perigee alt
20,167.9 km
Apogee alt
20,195.3 km
Semi-major
26,559.7 km
B*
0.0000e+0
RAAN
208.9229°
Arg perigee
271.7816°
Mean anomaly
81.6763°
Rev number
25

§ Raw data

GPS BIII-10 (PRN 13)1 68791U 26087A   26139.48610789  .00000028  00000+0  00000+0 0  99962 68791  54.9639 208.9229 0005154 271.7816  81.6763  2.00570690   255

JSON: /api/v1/satellites/68791 · /tle

For live sub-satellite position, see the globe view (requires WebGL).

§ Visibility from observer

Set your observer location to see the next 7 days of passes ≥ 10°. The values pass through the URL so the page stays shareable.

No JS? Fill the form by hand. The geolocation button needs JavaScript.